This is the latest recevied weather packets stored in our database for station/object F1ZVN-13. If no packets are shown the sender has not sent any weather packets the latest 10 day(s).
| Time | Temp. | Humidity | Pressure | Rain* | Wind** | Luminosity | Snow |
|---|---|---|---|---|---|---|---|
| 1778149493 | 4.44° C | 73% | 1004.2 hPa | 0 mm | 0 m/s | - | - |
| 1778149129 | 4.44° C | 72% | 1004.2 hPa | 0 mm | 0 m/s | - | - |
| 1778149008 | 5° C | 73% | 1004.2 hPa | 0 mm | 0 m/s | - | - |
| 1778148885 | 5° C | 75% | 1004.3 hPa | 0 mm | 0 m/s | - | - |
| 1778148766 | 5° C | 71% | 1004.2 hPa | 0 mm | 0 m/s | - | - |
| 1778148401 | 4.44° C | 75% | 1004.2 hPa | 0 mm | 0 m/s | - | - |
| 1778148281 | 4.44° C | 72% | 1004.2 hPa | 0 mm | 0 m/s | - | - |
| 1778148158 | 4.44° C | 72% | 1004.2 hPa | 0 mm | 0 m/s | - | - |
| 1778148050 | 4.44° C | 73% | 1004.2 hPa | 0 mm | 0 m/s | - | - |
| 1778147799 | 3.89° C | 78% | 1004.2 hPa | 0 mm | 0 m/s | - | - |
| 1778147679 | 3.89° C | 78% | 1004.2 hPa | 0 mm | 0 m/s | - | - |
| 1778147434 | 3.89° C | 73% | 1004.2 hPa | 0 mm | 0 m/s | - | - |
| 1778147314 | 3.89° C | 75% | 1004.2 hPa | 0 mm | 0 m/s | - | - |
| 1778147192 | 3.89° C | 73% | 1004.2 hPa | 0 mm | 0 m/s | - | - |
| 1778146944 | 3.89° C | 78% | 1004.2 hPa | 0 mm | 0 m/s | - | - |
| 1778146828 | 3.33° C | 76% | 1004.2 hPa | 0 mm | 0 m/s | - | - |
| 1778146701 | 3.33° C | 74% | 1004.2 hPa | 0 mm | 0 m/s | - | - |
| 1778146581 | 3.89° C | 75% | 1004.2 hPa | 0 mm | 0 m/s | - | - |
| 1778146459 | 3.89° C | 74% | 1004.2 hPa | 0 mm | 0 m/s | - | - |
| 1778146383 | 3.89° C | 70% | 1004.1 hPa | 0 mm | 0 m/s | - | - |
| 1778146339 | 3.89° C | 70% | 1004.1 hPa | 0 mm | 0 m/s | - | - |
| 1778146096 | 3.33° C | 71% | 1004.1 hPa | 0 mm | 0 m/s | - | - |
| 1778145973 | 3.33° C | 74% | 1004.1 hPa | 0 mm | 0 m/s | - | - |
| 1778145854 | 3.33° C | 74% | 1004.1 hPa | 0 mm | 0 m/s | - | - |
| 1778145731 | 3.33° C | 73% | 1004.1 hPa | 0 mm | 0 m/s | - | - |
* Rain latest hour (hover to see other rain measurements)
** Current wind speed in m/s (hover to see current wind gust speed)